Location: Newark
(49.1939°N, 0.8136°E)
Time: 15:44:30
(UTC+00:00)

Envisat - Pass Details

Date: 29 November 2019
Orbit: 764 x 766 km, 98.1° (Epoch: 14 December)

Event Time Altitude Azimuth Distance (km) Brightness Sun altitude
Rises 06:26:22 0° 18° (NNE) 3,244 6.2 -9.6°
Reaches altitude 10° 06:28:46 10° 24° (NNE) 2,313 5.5 -9.3°
Maximum altitude 06:33:42 48° 99° (E) 995 4.2 -8.5°
Drops below altitude 10° 06:38:35 10° 173° (S) 2,296 5.9 -7.8°
Sets 06:40:57 0° 179° (S) 3,217 6.6 -7.4°
